Tillamook, OR

6:39 PM PST on February 10, 2016 (GMT -0800)
Tillamook

Weather History for KTMK - August, 2014

Change the Weather History Date:

Friday, August 15, 2014

  Actual Average (KMMV) Record (KMMV)
Temperature  
Mean Temperature 64 °F 67 °F  
Max Temperature 69 °F 83 °F 104 °F (1923)
Min Temperature 60 °F 51 °F 37 °F (1937)
Degree Days  
Heating Degree Days 0 1  
Month to date heating degree days 15  
Since 1 July heating degree days 59  
Cooling Degree Days 0 3  
Month to date cooling degree days 45  
Year to date cooling degree days 145  
Growing Degree Days 14 (Base 50)    
Moisture  
Dew Point 61 °F    
Average Humidity 92    
Maximum Humidity 100    
Minimum Humidity 73    
Precipitation  
Precipitation 0.00 in 0.02 in 0.84 in (1912)
Month to date precipitation 0.21  
Year to date precipitation 21.96  
Sea Level Pressure  
Sea Level Pressure 30.05 in    
Wind  
Wind Speed 1 mph (West)    
Max Wind Speed 9 mph    
Max Gust Speed -    
Visibility 8 miles    
Events Fog    
T = Trace of Precipitation, MM = Missing Value Source: NWS Daily Summary

Daily Weather History Graph

Daily Weather History Graph

Search for Another Location

Airport or City:

Trip Planner

Search our weather history database for the weather conditions in past years. The results will help you decide how hot, cold, wet, or windy it might be!

Date:

Astronomy

Aug. 15, 2014 Rise Set
Actual Time 7:16 AM MDT 9:22 PM MDT
Civil Twilight 6:43 AM MDT 9:54 PM MDT
Nautical Twilight 6:04 AM MDT 10:34 PM MDT
Astronomical Twilight 5:19 AM MDT 11:17 PM MDT
Moon No Moon Rise 1:24 PM MDT (8/15)
Length of Visible Light 15h 10m
Length of Day
14h 06m
Waning Gibbous, 68% of the Moon is Illuminated
Aug 15
Waning Gibbous
Aug 17
Last Quarter
Aug 25
New
Sep 2
First Quarter
Sep 8
Full

Hourly Weather History & Observations

Time (MDT) Temp. Dew Point Humidity Pressure Visibility Wind Dir Wind Speed Gust Speed Precip Events Conditions
12:15 AM 62.6 °F 62.6 °F 100% 30.01 in 10.0 mi Calm Calm - N/A   Overcast
12:35 AM 62.6 °F 60.8 °F 94% 30.01 in 7.0 mi WNW 3.5 mph - N/A   Overcast
12:55 AM 60.8 °F 60.8 °F 100% 30.01 in 7.0 mi NW 4.6 mph - N/A   Overcast
1:15 AM 62.6 °F 60.8 °F 94% 30.01 in 7.0 mi Calm Calm - N/A   Overcast
1:35 AM 60.8 °F 60.8 °F 100% 30.02 in 5.0 mi Calm Calm - N/A   Overcast
1:55 AM 60.8 °F 60.8 °F 100% 30.02 in 1.2 mi Calm Calm - N/A   Overcast
2:15 AM 60.8 °F 60.8 °F 100% 30.02 in 1.0 mi Calm Calm - N/A   Overcast
2:35 AM 60.8 °F 60.8 °F 100% 30.02 in 0.8 mi Calm Calm - N/A   Overcast
2:55 AM 60.8 °F 60.8 °F 100% 30.02 in 0.5 mi Calm Calm - N/A Fog Fog
3:15 AM 60.8 °F 60.8 °F 100% 30.01 in 1.0 mi Calm Calm - N/A   Overcast
3:35 AM 60.8 °F 60.8 °F 100% 30.01 in 1.0 mi Calm Calm - N/A   Overcast
3:55 AM 60.8 °F 60.8 °F 100% 30.01 in 1.8 mi Calm Calm - N/A   Overcast
4:15 AM 60.8 °F 60.8 °F 100% 30.02 in 2.5 mi Calm Calm - N/A   Overcast
4:35 AM 60.8 °F 60.8 °F 100% 30.01 in 2.5 mi Calm Calm - N/A   Overcast
4:55 AM 60.8 °F 60.8 °F 100% 30.02 in 2.5 mi Calm Calm - N/A   Overcast
5:15 AM 60.8 °F 60.8 °F 100% 30.02 in 2.5 mi Calm Calm - N/A   Overcast
5:35 AM 60.8 °F 60.8 °F 100% 30.01 in 5.0 mi Calm Calm - N/A   Overcast
5:55 AM 60.8 °F 60.8 °F 100% 30.01 in 2.5 mi Calm Calm - N/A   Overcast
6:15 AM 60.8 °F 60.8 °F 100% 30.02 in 3.0 mi Calm Calm - N/A   Overcast
6:35 AM 60.8 °F 60.8 °F 100% 30.02 in 5.0 mi Calm Calm - N/A   Overcast
6:55 AM 60.8 °F 60.8 °F 100% 30.02 in 7.0 mi Calm Calm - N/A   Overcast
7:15 AM 60.8 °F 60.8 °F 100% 30.03 in 7.0 mi Calm Calm - N/A   Overcast
7:35 AM 60.8 °F 60.8 °F 100% 30.03 in 7.0 mi Calm Calm - N/A   Overcast
7:55 AM 60.8 °F 60.8 °F 100% 30.04 in 7.0 mi Calm Calm - N/A   Overcast
8:15 AM 60.8 °F 60.8 °F 100% 30.04 in 7.0 mi Calm Calm - N/A   Overcast
8:35 AM 60.8 °F 60.8 °F 100% 30.04 in 10.0 mi Calm Calm - N/A   Overcast
8:55 AM 62.6 °F 62.6 °F 100% 30.04 in 10.0 mi Calm Calm - N/A   Overcast
9:15 AM 62.6 °F 62.6 °F 100% 30.05 in 10.0 mi Calm Calm - N/A   Overcast
9:35 AM 62.6 °F 62.6 °F 100% 30.06 in 10.0 mi Calm Calm - N/A   Overcast
9:55 AM 62.6 °F 62.6 °F 100% 30.06 in 10.0 mi Calm Calm - N/A   Overcast
10:15 AM 62.6 °F 62.6 °F 100% 30.07 in 10.0 mi Calm Calm - N/A   Overcast
10:35 AM 62.6 °F 62.6 °F 100% 30.07 in 10.0 mi Calm Calm - N/A   Overcast
10:55 AM 62.6 °F 62.6 °F 100% 30.07 in 7.0 mi Calm Calm - N/A   Overcast
11:15 AM 62.6 °F 62.6 °F 100% 30.07 in 7.0 mi Calm Calm - N/A   Overcast
11:35 AM 62.6 °F 62.6 °F 100% 30.07 in 3.0 mi Calm Calm - N/A   Overcast
11:55 AM 62.6 °F 62.6 °F 100% 30.08 in 4.0 mi Calm Calm - N/A   Overcast
12:15 PM 64.4 °F 62.6 °F 94% 30.08 in 7.0 mi Calm Calm - N/A   Overcast
12:35 PM 66.2 °F 62.6 °F 88% 30.08 in 10.0 mi Calm Calm - N/A   Overcast
12:55 PM 66.2 °F 62.6 °F 88% 30.08 in 10.0 mi Calm Calm - N/A   Overcast
1:15 PM 66.2 °F 62.6 °F 88% 30.08 in 10.0 mi WSW 4.6 mph - N/A   Overcast
1:35 PM 66.2 °F 62.6 °F 88% 30.08 in 10.0 mi WSW 4.6 mph - N/A   Overcast
2:15 PM 68.0 °F 62.6 °F 83% 30.08 in 10.0 mi Calm Calm - N/A   Overcast
2:35 PM 68.0 °F 62.6 °F 83% 30.08 in 10.0 mi West 3.5 mph - N/A   Overcast
2:55 PM 69.8 °F 62.6 °F 78% 30.08 in 10.0 mi Calm Calm - N/A   Overcast
3:15 PM 69.8 °F 62.6 °F 78% 30.08 in 10.0 mi NW 5.8 mph - N/A   Overcast
3:35 PM 69.8 °F 62.6 °F 78% 30.08 in 10.0 mi West 9.2 mph - N/A   Overcast
3:55 PM 68.0 °F 60.8 °F 78% 30.08 in 10.0 mi West 8.1 mph - N/A   Overcast
4:15 PM 68.0 °F 62.6 °F 83% 30.08 in 10.0 mi WSW 8.1 mph - N/A   Overcast
4:35 PM 68.0 °F 60.8 °F 78% 30.08 in 10.0 mi WSW 8.1 mph - N/A   Overcast
4:55 PM 68.0 °F 60.8 °F 78% 30.07 in 10.0 mi WSW 5.8 mph - N/A   Overcast
5:15 PM 68.0 °F 60.8 °F 78% 30.07 in 10.0 mi NW 4.6 mph - N/A   Overcast
5:35 PM 68.0 °F 60.8 °F 78% 30.08 in 10.0 mi NW 3.5 mph - N/A   Overcast
5:55 PM 68.0 °F 60.8 °F 78% 30.08 in 10.0 mi West 3.5 mph - N/A   Overcast
6:15 PM 66.2 °F 60.8 °F 83% 30.08 in 10.0 mi WSW 5.8 mph - N/A   Overcast
6:35 PM 66.2 °F 60.8 °F 83% 30.08 in 10.0 mi Calm Calm - N/A   Overcast
6:55 PM 66.2 °F 60.8 °F 83% 30.08 in 10.0 mi WSW 4.6 mph - N/A   Overcast
7:15 PM 68.0 °F 60.8 °F 78% 30.08 in 10.0 mi WSW 3.5 mph - N/A   Overcast
7:35 PM 68.0 °F 59.0 °F 73% 30.08 in 10.0 mi NNW 4.6 mph - N/A   Overcast
7:55 PM 66.2 °F 59.0 °F 78% 30.07 in 10.0 mi NNW 3.5 mph - N/A   Overcast
8:15 PM 66.2 °F 59.0 °F 78% 30.08 in 10.0 mi Calm Calm - N/A   Overcast
8:35 PM 66.2 °F 60.8 °F 83% 30.07 in 10.0 mi Calm Calm - N/A   Overcast
8:55 PM 64.4 °F 60.8 °F 88% 30.07 in 10.0 mi Calm Calm - N/A   Overcast
9:15 PM 64.4 °F 60.8 °F 88% 30.07 in 10.0 mi Calm Calm - N/A   Mostly Cloudy
9:35 PM 62.6 °F 60.8 °F 94% 30.08 in 10.0 mi Calm Calm - N/A   Mostly Cloudy
10:15 PM 60.8 °F 59.0 °F 94% 30.09 in 10.0 mi Calm Calm - N/A   Overcast
10:35 PM 60.8 °F 60.8 °F 100% 30.09 in 10.0 mi Calm Calm - N/A   Overcast
11:15 PM 60.8 °F 60.8 °F 100% 30.09 in 10.0 mi Calm Calm - N/A   Overcast
11:35 PM 60.8 °F 60.8 °F 100% 30.09 in 10.0 mi Calm Calm - N/A   Overcast
11:55 PM 60.8 °F 59.0 °F 94% 30.09 in 10.0 mi Calm Calm - N/A   Scattered Clouds